Regional Weather Roundup
Issued by NWS Sterling, VA

Home | Current Version | Previous Version | Graphics & Text | Print | Product List | Glossary On
Versions: 1 2 3 4 5 6 7 8 9 10 11 12 13 14 15 16 17 18 19 20 21 22 23 24 25 26 27
000
ASUS41 KLWX 051410
RWRLWX

REGIONAL WEATHER ROUNDUP
NATIONAL WEATHER SERVICE BALTIMORE MD/WASHINGTON DC
1000 AM EDT THU MAY 05 2016

Note: "FAIR" indicates few or no clouds below 12,000 feet
with no significant weather and/or obstructions to visibility.
 TC=TEMPERATURE CELSIUS

 * =Non NWS site. Station does not report precipitation (e.g. rain,
    snow, etc.), thunder, or fog.

DCZ001-MDZ009-015-VAZ040>042-051-053>054-051500-
WASHINGTON METRO

CITY           SKY/WX    TMP DP  RH WIND       PRES   REMARKS
WASHINGTON NAT CLOUDY    52  49  89 NE10      29.68S FOG
DULLES         DRIZZLE   52  48  86 NE7       29.68S FOG
ANDREWS AFB    CLOUDY    50  48  93 NE10      29.66S FOG
FT BELVOIR     DRIZZLE   52  48  87 VRB3      29.67S
QUANTICO       CLOUDY    55  49  80 E13       29.67S
COLLEGE PARK*  CLOUDY    50  48  93 N5        29.68S
LEESBURG*      CLOUDY    54  52  94 NE10      29.69S
MANASSAS*      CLOUDY    52  52 100 NE8       29.67S
GAITHERSBURG*  CLOUDY    50  46  87 NE7       29.72R

$$

MDZ006>007-011-014-051500-
BALTIMORE METRO

CITY           SKY/WX    TMP DP  RH WIND       PRES   REMARKS
BWI AIRPORT    DRIZZLE   50  48  93 NE9       29.69R FOG
MD SCIENCE CTR   N/A     52  45  77 MISG      29.70R
MARTIN STATE   CLOUDY    54  48  82 N7        29.70F
ANNAPOLIS      CLOUDY    51  48  89 NE7       29.68S FOG
FORT MEADE*    CLOUDY    50  46  87 NE7       29.70S

$$

MDZ012-015-019>023-051500-
MARYLAND EASTERN SHORE

CITY           SKY/WX    TMP DP  RH WIND       PRES   REMARKS
OCEAN CITY     CLOUDY    49  46  90 NE15G24   29.65S
SALISBURY      CLOUDY    50  47  89 NE15      29.65F
CAMBRIDGE*     CLOUDY    50  45  81 E6        29.66S
EASTON*        CLOUDY   N/A N/A N/A NE8       29.71S

$$

MDZ017>025-051500-
SOUTHERN MARYLAND

CITY           SKY/WX    TMP DP  RH WIND       PRES   REMARKS
PATUXENT RIVER CLOUDY    51  46  83 NE12      29.65F
ST INIGOES     CLOUDY    52  47  83 NE9       29.64F
LEONARDTOWN*   CLOUDY    50  45  81 NE6       29.67F

$$

MDZ003>005-051500-
NORTH CENTRAL MARYLAND

CITY           SKY/WX    TMP DP  RH WIND       PRES   REMARKS
FREDERICK*     CLOUDY    52  50  93 NE8       29.72S FOG
HAGERSTOWN APT CLOUDY    53  46  77 NE6       29.69S
WESTMINSTER*   CLOUDY    48  27  43 NE5       29.69S HAZE

$$

MDZ501>502-051500-
WESTERN MARYLAND

CITY           SKY/WX    TMP DP  RH WIND       PRES   REMARKS
OAKLAND*       FOG       43  43 100 CALM      29.68R VSB 1/2
CUMBERLAND*    CLOUDY    54  52  94 CALM      29.73S

$$

VAZ025>031-051500-
SHENANDOAH VALLEY

CITY           SKY/WX    TMP DP  RH WIND       PRES   REMARKS
WINCHESTER*    CLOUDY    50  50 100 N3        29.69R FOG
FRONT ROYAL*   CLOUDY    50  48  93 NE5       29.67S
LURAY*         DRIZZLE   50  50 100 N9        29.66S
NEW MARKET*    CLOUDY    49  48  97 N8        29.66R
STAUNTON*      RAIN      52  52 100 N8        29.66S
WAYNESBORO*    CLOUDY    49  48  95 E5        29.64R

$$

WVZ021-048>050-054>055-051500-
EASTERN WEST VIRGINIA PANHANDLE

CITY           SKY/WX    TMP DP  RH WIND       PRES   REMARKS
MARTINSBURG    CLOUDY    52  47  83 NE8       29.68S
PETERSBURG*    RAIN      53  49  89 N5        29.69R

$$

VAZ036>039-050-051500-
CENTRAL FOOTHILLS

CITY           SKY/WX    TMP DP  RH WIND       PRES   REMARKS
CHARLOTTESVILL LGT RAIN  51  48  89 NE10      29.65R FOG
CULPEPER*      DRIZZLE   51  51  98 CALM      29.68S
ORANGE*        LGT RAIN  50  50 100 NE5       29.68S
GORDONSVILLE*  CLOUDY    50  50  99 NE3       29.65S FOG
WARRENTON*     CLOUDY    52  47  83 NE3       29.67S HAZE

$$

VAZ055>057-051500-
NORTH AND CENTRAL PIEDMONT

CITY           SKY/WX    TMP DP  RH WIND       PRES   REMARKS
FREDERICKSBRG* CLOUDY    52  52 100 NE7       29.66S
STAFFORD*      CLOUDY    51  48  89 E7        29.70F

$$

NCZ024-NYZ072-PAZ021-071-VAZ022-071-051500-
OTHER REGIONAL OBSERVATIONS

CITY           SKY/WX    TMP DP  RH WIND       PRES   REMARKS
NEW YORK CITY  CLOUDY    50  42  74 VRB6      29.73S
PHILADELPHIA   CLOUDY    51  43  74 NE16      29.69F
PITTSBURGH     DRIZZLE   53  48  83 NW8       29.71S
ROANOKE        RAIN      49  47  93 W8        29.67S FOG
RICHMOND       CLOUDY    51  50  96 NE8       29.63S FOG
RALEIGH        LGT RAIN  60  56  86 VRB7      29.56F

$$

ANZ530>537-051500-
MARINE OBSERVATIONS

STATION/POSITION TIME  TEMP    WIND        PRES
                       AIR SEA DIR/SP/G
                 (UTC) (F)     (DEG/KT/KT) (MB)
THOMAS PT LIGHT  1400   51 58   60/ 13/ 14 1006.3R
BALT KEY BRIDGE  1300   50      20/  9/ 11 1004.9R
COVE POINT       1300   50      70/ 11/ 15 1004.9R
LEWISETTA        1300   52 61   60/  9/ 14 1003.7R
SOLOMONS ISLAND  1300   51 60   40/  8/ 10   N/A
PINEY POINT      1300           70/  8/ 11   N/A

$$





USA.gov is the U.S. government's official web portal to all federal, state and local government web resources and services.